Time,TemperatureF,DewpointF,PressureIn,WindDirection,WindDirectionDegrees,WindSpeedMPH,WindSpeedGustMPH,Humidity,HourlyPrecipIn,Conditions,Clouds,dailyrainin,SoftwareType,DateUTC
2013-05-27 00:02:00,58.0,55.0,30.22,SE,129,0.0,0.0,89,0.00,,,0.00,,2013-05-27 04:02:00,
2013-05-27 00:12:00,58.0,55.0,30.22,SE,129,0.0,0.0,89,0.00,,,0.00,,2013-05-27 04:12:00,
2013-05-27 00:23:00,58.0,55.0,30.22,SE,130,0.0,0.0,89,0.00,,,0.00,,2013-05-27 04:23:00,
2013-05-27 00:33:00,58.0,55.0,30.22,SE,129,0.0,0.0,90,0.00,,,0.00,,2013-05-27 04:33:00,
2013-05-27 00:43:00,57.0,54.0,30.22,SE,142,0.0,1.0,90,0.00,,,0.00,,2013-05-27 04:43:00,
2013-05-27 00:53:00,57.0,54.0,30.22,SE,142,0.0,1.0,90,0.00,,,0.00,,2013-05-27 04:53:00,
2013-05-27 01:02:00,57.0,54.0,30.22,SE,142,0.0,0.0,91,0.00,,,0.00,,2013-05-27 05:02:00,
2013-05-27 01:12:00,57.0,54.0,30.22,SE,142,0.0,0.0,91,0.00,,,0.00,,2013-05-27 05:12:00,
2013-05-27 01:22:00,57.0,55.0,30.22,SE,143,0.0,0.0,92,0.00,,,0.00,,2013-05-27 05:22:00,
2013-05-27 01:32:00,56.0,54.0,30.22,SE,142,0.0,1.0,92,0.00,,,0.00,,2013-05-27 05:32:00,
2013-05-27 01:42:00,56.0,54.0,30.22,SE,142,0.0,1.0,92,0.00,,,0.00,,2013-05-27 05:42:00,
2013-05-27 01:52:00,56.0,54.0,30.22,SE,142,0.0,0.0,92,0.00,,,0.00,,2013-05-27 05:52:00,
2013-05-27 02:02:00,56.0,54.0,30.22,SE,142,0.0,0.0,93,0.00,,,0.00,,2013-05-27 06:02:00,
2013-05-27 02:11:00,56.0,54.0,30.22,SE,142,0.0,0.0,93,0.00,,,0.00,,2013-05-27 06:11:00,
2013-05-27 02:22:00,55.0,53.0,30.22,SE,142,0.0,0.0,93,0.00,,,0.00,,2013-05-27 06:22:00,
2013-05-27 02:32:00,55.0,53.0,30.22,SE,142,0.0,0.0,94,0.00,,,0.00,,2013-05-27 06:32:00,
2013-05-27 02:42:00,55.0,53.0,30.21,SE,142,0.0,0.0,94,0.00,,,0.00,,2013-05-27 06:42:00,
2013-05-27 02:52:00,55.0,53.0,30.21,SE,142,0.0,0.0,94,0.00,,,0.00,,2013-05-27 06:52:00,
2013-05-27 03:02:00,55.0,53.0,30.21,SE,143,0.0,0.0,94,0.00,,,0.00,,2013-05-27 07:02:00,
2013-05-27 03:11:00,55.0,53.0,30.20,SE,143,0.0,0.0,94,0.00,,,0.00,,2013-05-27 07:11:00,
2013-05-27 03:21:00,55.0,53.0,30.20,SE,143,0.0,0.0,94,0.00,,,0.00,,2013-05-27 07:21:00,
2013-05-27 03:32:00,55.0,53.0,30.20,SE,142,0.0,0.0,94,0.00,,,0.00,,2013-05-27 07:32:00,
2013-05-27 03:42:00,55.0,53.0,30.20,SE,142,0.0,0.0,94,0.00,,,0.00,,2013-05-27 07:42:00,
2013-05-27 03:53:00,54.0,53.0,30.20,SE,142,0.0,0.0,95,0.00,,,0.00,,2013-05-27 07:53:00,
2013-05-27 04:02:00,54.0,53.0,30.20,SE,142,0.0,0.0,95,0.00,,,0.00,,2013-05-27 08:02:00,
2013-05-27 04:11:00,54.0,53.0,30.20,SE,142,0.0,0.0,95,0.00,,,0.00,,2013-05-27 08:11:00,
2013-05-27 04:22:00,54.0,53.0,30.20,SE,142,0.0,0.0,95,0.00,,,0.00,,2013-05-27 08:22:00,
2013-05-27 04:33:00,54.0,53.0,30.20,SE,142,0.0,0.0,95,0.00,,,0.00,,2013-05-27 08:33:00,
2013-05-27 04:42:00,54.0,53.0,30.20,SE,142,0.0,0.0,95,0.00,,,0.00,,2013-05-27 08:42:00,
2013-05-27 04:52:00,54.0,53.0,30.21,SE,142,0.0,0.0,95,0.00,,,0.00,,2013-05-27 08:52:00,
2013-05-27 05:02:00,54.0,53.0,30.21,SE,142,0.0,0.0,95,0.00,,,0.00,,2013-05-27 09:02:00,
2013-05-27 05:11:00,54.0,53.0,30.21,SE,143,0.0,0.0,95,0.00,,,0.00,,2013-05-27 09:11:00,
2013-05-27 05:22:00,54.0,53.0,30.21,SE,143,0.0,0.0,95,0.00,,,0.00,,2013-05-27 09:22:00,
2013-05-27 05:33:00,54.0,53.0,30.22,SE,142,0.0,1.0,95,0.00,,,0.00,,2013-05-27 09:33:00,
2013-05-27 05:42:00,54.0,53.0,30.22,SE,142,0.0,1.0,95,0.00,,,0.00,,2013-05-27 09:42:00,
2013-05-27 05:53:00,53.0,52.0,30.22,SE,142,0.0,0.0,95,0.00,,,0.00,,2013-05-27 09:53:00,
2013-05-27 06:03:00,53.0,52.0,30.22,SE,142,0.0,0.0,95,0.00,,,0.00,,2013-05-27 10:03:00,
2013-05-27 06:12:00,53.0,52.0,30.22,SE,142,0.0,0.0,95,0.00,,,0.00,,2013-05-27 10:12:00,
2013-05-27 06:23:00,53.0,52.0,30.23,SE,142,0.0,0.0,96,0.00,,,0.00,,2013-05-27 10:23:00,
2013-05-27 06:32:00,53.0,52.0,30.23,SE,142,0.0,0.0,96,0.00,,,0.00,,2013-05-27 10:32:00,
2013-05-27 06:42:00,53.0,52.0,30.23,SE,142,0.0,0.0,96,0.00,,,0.00,,2013-05-27 10:42:00,
2013-05-27 06:52:00,53.0,52.0,30.24,SE,142,0.0,1.0,96,0.00,,,0.00,,2013-05-27 10:52:00,
2013-05-27 07:02:00,53.0,52.0,30.24,SE,142,0.0,0.0,96,0.00,,,0.00,,2013-05-27 11:02:00,
2013-05-27 07:11:00,53.0,52.0,30.24,SE,142,0.0,0.0,96,0.00,,,0.00,,2013-05-27 11:11:00,
2013-05-27 07:22:00,54.0,53.0,30.25,SE,143,0.0,0.0,96,0.00,,,0.00,,2013-05-27 11:22:00,
2013-05-27 07:32:00,54.0,53.0,30.25,SE,142,0.0,0.0,96,0.00,,,0.00,,2013-05-27 11:32:00,
2013-05-27 07:42:00,54.0,53.0,30.25,SE,142,0.0,0.0,96,0.00,,,0.00,,2013-05-27 11:42:00,
2013-05-27 07:52:00,55.0,54.0,30.26,SE,142,0.0,0.0,96,0.00,,,0.00,,2013-05-27 11:52:00,
2013-05-27 08:01:00,56.0,55.0,30.26,SE,142,0.0,0.0,96,0.00,,,0.00,,2013-05-27 12:01:00,
2013-05-27 08:11:00,56.0,55.0,30.26,SE,142,0.0,0.0,96,0.00,,,0.00,,2013-05-27 12:11:00,
2013-05-27 08:22:00,59.0,58.0,30.26,SE,142,0.0,0.0,97,0.00,,,0.00,,2013-05-27 12:22:00,
2013-05-27 08:32:00,62.0,60.0,30.26,SE,143,0.0,0.0,92,0.00,,,0.00,,2013-05-27 12:32:00,
2013-05-27 08:42:00,62.0,60.0,30.26,SE,143,0.0,0.0,92,0.00,,,0.00,,2013-05-27 12:42:00,
2013-05-27 08:52:00,67.0,62.0,30.27,SE,143,0.0,0.0,84,0.00,,,0.00,,2013-05-27 12:52:00,
2013-05-27 09:01:00,70.0,63.0,30.27,SSW,212,0.0,1.0,79,0.00,,,0.00,,2013-05-27 13:01:00,
2013-05-27 09:11:00,70.0,63.0,30.27,SSW,212,0.0,1.0,79,0.00,,,0.00,,2013-05-27 13:11:00,
2013-05-27 09:22:00,73.0,64.0,30.27,SE,131,1.0,2.0,74,0.00,,,0.00,,2013-05-27 13:22:00,
2013-05-27 09:32:00,75.0,65.0,30.27,NE,53,0.0,1.0,70,0.00,,,0.00,,2013-05-27 13:32:00,
2013-05-27 09:42:00,75.0,65.0,30.27,NE,53,0.0,1.0,70,0.00,,,0.00,,2013-05-27 13:42:00,
2013-05-27 09:53:00,75.0,64.0,30.27,SW,232,1.0,3.0,68,0.00,,,0.00,,2013-05-27 13:53:00,
2013-05-27 10:02:00,76.0,63.0,30.27,WSW,253,1.0,2.0,65,0.00,,,0.00,,2013-05-27 14:02:00,
2013-05-27 10:11:00,76.0,63.0,30.27,WSW,253,1.0,2.0,65,0.00,,,0.00,,2013-05-27 14:11:00,
2013-05-27 10:22:00,77.0,63.0,30.26,East,83,1.0,3.0,63,0.00,,,0.00,,2013-05-27 14:22:00,
2013-05-27 10:32:00,78.0,63.0,30.26,West,262,1.0,3.0,60,0.00,,,0.00,,2013-05-27 14:32:00,
2013-05-27 10:42:00,78.0,63.0,30.26,West,262,1.0,3.0,60,0.00,,,0.00,,2013-05-27 14:42:00,
2013-05-27 10:52:00,79.0,62.0,30.26,ENE,58,2.0,4.0,57,0.00,,,0.00,,2013-05-27 14:52:00,
2013-05-27 11:01:00,79.0,62.0,30.25,WSW,253,1.0,5.0,57,0.00,,,0.00,,2013-05-27 15:01:00,
2013-05-27 11:11:00,80.0,61.0,30.25,ENE,72,1.0,4.0,53,0.00,,,0.00,,2013-05-27 15:11:00,
2013-05-27 11:22:00,80.0,61.0,30.25,ENE,72,1.0,4.0,53,0.00,,,0.00,,2013-05-27 15:22:00,
2013-05-27 11:33:00,81.0,63.0,30.25,WSW,240,0.0,4.0,55,0.00,,,0.00,,2013-05-27 15:33:00,
2013-05-27 11:43:00,81.0,63.0,30.25,WSW,240,0.0,4.0,55,0.00,,,0.00,,2013-05-27 15:43:00,
2013-05-27 11:53:00,82.0,62.0,30.25,SW,217,3.0,5.0,51,0.00,,,0.00,,2013-05-27 15:53:00,
2013-05-27 12:03:00,81.0,62.0,30.25,North,4,1.0,4.0,53,0.00,,,0.00,,2013-05-27 16:03:00,
2013-05-27 12:12:00,81.0,62.0,30.25,North,4,1.0,4.0,53,0.00,,,0.00,,2013-05-27 16:12:00,
2013-05-27 12:23:00,82.0,63.0,30.24,SW,224,2.0,4.0,52,0.00,,,0.00,,2013-05-27 16:23:00,
2013-05-27 12:33:00,83.0,63.0,30.24,East,84,2.0,4.0,51,0.00,,,0.00,,2013-05-27 16:33:00,
2013-05-27 12:42:00,83.0,63.0,30.24,East,84,2.0,4.0,51,0.00,,,0.00,,2013-05-27 16:42:00,
2013-05-27 12:53:00,82.0,61.0,30.24,ENE,57,2.0,6.0,50,0.00,,,0.00,,2013-05-27 16:53:00,
2013-05-27 13:02:00,83.0,64.0,30.23,SW,214,2.0,5.0,53,0.00,,,0.00,,2013-05-27 17:02:00,
2013-05-27 13:12:00,84.0,64.0,30.23,WNW,286,1.0,3.0,52,0.00,,,0.00,,2013-05-27 17:12:00,
2013-05-27 13:22:00,84.0,64.0,30.23,WNW,286,1.0,3.0,52,0.00,,,0.00,,2013-05-27 17:22:00,
2013-05-27 13:32:00,85.0,64.0,30.22,ENE,76,1.0,3.0,50,0.00,,,0.00,,2013-05-27 17:32:00,
2013-05-27 13:43:00,85.0,64.0,30.22,ENE,76,1.0,3.0,50,0.00,,,0.00,,2013-05-27 17:43:00,
2013-05-27 13:52:00,86.0,64.0,30.22,ENE,67,1.0,3.0,48,0.00,,,0.00,,2013-05-27 17:52:00,
2013-05-27 14:02:00,85.0,62.0,30.22,WSW,248,3.0,5.0,47,0.00,,,0.00,,2013-05-27 18:02:00,
2013-05-27 14:11:00,85.0,62.0,30.22,WSW,248,3.0,5.0,47,0.00,,,0.00,,2013-05-27 18:11:00,
2013-05-27 14:22:00,85.0,64.0,30.21,SSE,158,2.0,6.0,50,0.00,,,0.00,,2013-05-27 18:22:00,
2013-05-27 14:32:00,86.0,63.0,30.21,SW,228,1.0,3.0,47,0.00,,,0.00,,2013-05-27 18:32:00,
2013-05-27 14:42:00,86.0,63.0,30.21,SW,228,1.0,3.0,47,0.00,,,0.00,,2013-05-27 18:42:00,
2013-05-27 14:52:00,86.0,62.0,30.21,WSW,246,1.0,3.0,45,0.00,,,0.00,,2013-05-27 18:52:00,
2013-05-27 15:01:00,87.0,62.0,30.20,SW,236,1.0,3.0,44,0.00,,,0.00,,2013-05-27 19:01:00,
2013-05-27 15:11:00,87.0,62.0,30.20,SW,236,1.0,3.0,44,0.00,,,0.00,,2013-05-27 19:11:00,
2013-05-27 15:22:00,87.0,62.0,30.20,ESE,106,1.0,4.0,44,0.00,,,0.00,,2013-05-27 19:22:00,
2013-05-27 15:32:00,87.0,63.0,30.19,ENE,77,1.0,4.0,45,0.00,,,0.00,,2013-05-27 19:32:00,
2013-05-27 15:42:00,87.0,63.0,30.19,ENE,77,1.0,4.0,45,0.00,,,0.00,,2013-05-27 19:42:00,
2013-05-27 15:52:00,88.0,65.0,30.19,ENE,77,1.0,5.0,46,0.00,,,0.00,,2013-05-27 19:52:00,
2013-05-27 16:01:00,87.0,60.0,30.18,North,349,2.0,5.0,41,0.00,,,0.00,,2013-05-27 20:01:00,
2013-05-27 16:11:00,87.0,60.0,30.18,North,349,2.0,5.0,41,0.00,,,0.00,,2013-05-27 20:11:00,
2013-05-27 16:22:00,88.0,63.0,30.17,WSW,246,1.0,4.0,44,0.00,,,0.00,,2013-05-27 20:22:00,
2013-05-27 16:32:00,89.0,62.0,30.17,SE,136,2.0,4.0,41,0.00,,,0.00,,2013-05-27 20:32:00,
2013-05-27 16:42:00,88.0,64.0,30.17,ESE,105,1.0,3.0,45,0.00,,,0.00,,2013-05-27 20:42:00,
2013-05-27 16:53:00,88.0,64.0,30.17,ESE,105,1.0,3.0,45,0.00,,,0.00,,2013-05-27 20:53:00,
2013-05-27 17:01:00,86.0,63.0,30.16,ENE,75,1.0,3.0,47,0.00,,,0.00,,2013-05-27 21:01:00,
2013-05-27 17:12:00,88.0,64.0,30.16,SE,141,0.0,2.0,45,0.00,,,0.00,,2013-05-27 21:12:00,
2013-05-27 17:21:00,88.0,64.0,30.16,SE,141,0.0,2.0,45,0.00,,,0.00,,2013-05-27 21:21:00,
2013-05-27 17:33:00,88.0,64.0,30.15,SSW,211,1.0,3.0,45,0.00,,,0.00,,2013-05-27 21:33:00,
2013-05-27 17:43:00,87.0,63.0,30.15,NNE,27,2.0,5.0,45,0.00,,,0.00,,2013-05-27 21:43:00,
2013-05-27 17:53:00,87.0,63.0,30.15,NNE,27,2.0,5.0,45,0.00,,,0.00,,2013-05-27 21:53:00,
2013-05-27 18:02:00,87.0,63.0,30.15,NW,325,1.0,3.0,45,0.00,,,0.00,,2013-05-27 22:02:00,
2013-05-27 18:13:00,87.0,64.0,30.14,SE,129,1.0,3.0,47,0.00,,,0.00,,2013-05-27 22:13:00,
2013-05-27 18:23:00,87.0,64.0,30.14,SE,129,1.0,3.0,47,0.00,,,0.00,,2013-05-27 22:23:00,
2013-05-27 18:33:00,85.0,64.0,30.14,ESE,111,0.0,1.0,50,0.00,,,0.00,,2013-05-27 22:33:00,
2013-05-27 18:42:00,85.0,64.0,30.14,ESE,111,0.0,1.0,50,0.00,,,0.00,,2013-05-27 22:42:00,
2013-05-27 18:53:00,84.0,66.0,30.14,South,177,0.0,1.0,55,0.00,,,0.00,,2013-05-27 22:53:00,
2013-05-27 19:02:00,83.0,68.0,30.14,South,177,0.0,0.0,60,0.00,,,0.00,,2013-05-27 23:02:00,
2013-05-27 19:12:00,83.0,68.0,30.14,South,177,0.0,0.0,60,0.00,,,0.00,,2013-05-27 23:12:00,
2013-05-27 19:22:00,81.0,68.0,30.14,South,177,0.0,0.0,64,0.00,,,0.00,,2013-05-27 23:22:00,
2013-05-27 19:32:00,80.0,68.0,30.15,South,178,0.0,1.0,66,0.00,,,0.00,,2013-05-27 23:32:00,
2013-05-27 19:42:00,80.0,68.0,30.15,South,178,0.0,1.0,66,0.00,,,0.00,,2013-05-27 23:42:00,
2013-05-27 19:52:00,79.0,68.0,30.15,South,177,0.0,1.0,70,0.00,,,0.00,,2013-05-27 23:52:00,
2013-05-27 20:01:00,79.0,66.0,30.16,South,176,0.0,1.0,64,0.00,,,0.00,,2013-05-28 00:01:00,
2013-05-27 20:11:00,79.0,66.0,30.16,South,176,0.0,1.0,64,0.00,,,0.00,,2013-05-28 00:11:00,
2013-05-27 20:22:00,78.0,67.0,30.16,South,176,0.0,1.0,68,0.00,,,0.00,,2013-05-28 00:22:00,
2013-05-27 20:32:00,77.0,66.0,30.16,South,176,0.0,1.0,70,0.00,,,0.00,,2013-05-28 00:32:00,
2013-05-27 20:42:00,77.0,66.0,30.16,South,176,0.0,1.0,70,0.00,,,0.00,,2013-05-28 00:42:00,
2013-05-27 20:52:00,76.0,66.0,30.17,SSE,162,0.0,1.0,71,0.00,,,0.00,,2013-05-28 00:52:00,
2013-05-27 21:01:00,75.0,66.0,30.17,SE,140,0.0,2.0,74,0.00,,,0.00,,2013-05-28 01:01:00,
2013-05-27 21:11:00,75.0,66.0,30.17,SE,140,0.0,2.0,74,0.00,,,0.00,,2013-05-28 01:11:00,
2013-05-27 21:22:00,75.0,66.0,30.17,SE,145,1.0,5.0,74,0.00,,,0.00,,2013-05-28 01:22:00,
2013-05-27 21:32:00,75.0,66.0,30.17,East,82,0.0,3.0,74,0.00,,,0.00,,2013-05-28 01:32:00,
2013-05-27 21:42:00,75.0,66.0,30.17,East,82,0.0,3.0,74,0.00,,,0.00,,2013-05-28 01:42:00,
2013-05-27 21:52:00,74.0,66.0,30.18,WNW,299,0.0,2.0,76,0.00,,,0.00,,2013-05-28 01:52:00,
2013-05-27 22:02:00,74.0,66.0,30.18,ENE,78,1.0,3.0,76,0.00,,,0.00,,2013-05-28 02:02:00,
2013-05-27 22:11:00,74.0,66.0,30.18,ENE,78,1.0,3.0,76,0.00,,,0.00,,2013-05-28 02:11:00,
2013-05-27 22:22:00,73.0,66.0,30.19,SE,136,1.0,2.0,78,0.00,,,0.00,,2013-05-28 02:22:00,
2013-05-27 22:32:00,72.0,65.0,30.19,NW,325,1.0,4.0,79,0.00,,,0.00,,2013-05-28 02:32:00,
2013-05-27 22:42:00,72.0,65.0,30.19,NW,325,1.0,4.0,79,0.00,,,0.00,,2013-05-28 02:42:00,
2013-05-27 22:52:00,72.0,65.0,30.20,SSE,148,1.0,2.0,80,0.00,,,0.00,,2013-05-28 02:52:00,
2013-05-27 23:01:00,71.0,65.0,30.20,ENE,77,1.0,2.0,80,0.00,,,0.00,,2013-05-28 03:01:00,
2013-05-27 23:11:00,71.0,65.0,30.20,ENE,77,1.0,2.0,80,0.00,,,0.00,,2013-05-28 03:11:00,
2013-05-27 23:22:00,71.0,65.0,30.20,East,82,1.0,3.0,81,0.00,,,0.00,,2013-05-28 03:22:00,
2013-05-27 23:33:00,70.0,64.0,30.20,SE,126,2.0,5.0,82,0.00,,,0.00,,2013-05-28 03:33:00,
2013-05-27 23:43:00,70.0,64.0,30.20,SE,126,2.0,5.0,82,0.00,,,0.00,,2013-05-28 03:43:00,
2013-05-27 23:53:00,70.0,64.0,30.20,North,4,0.0,1.0,82,0.00,,,0.00,,2013-05-28 03:53:00,